User: anonymous
Location: Spradlin Observatory
(33.4706°N, 86.3221°W)
Time: 08:48:57
(UTC-05:00)
Language:

COSMOS 2406 - Orbit

View from above orbital plane
View from above orbital plane
View from above satellite
View from above satellite

Ground track
Ground track

The orbit data is extracted from the following two-line orbital elements,

1 28352U 04021A   14203.49449343  .00000289  00000-0  18559-3 0  3474
2 28352 071.0029 178.8740 0017117 266.6031 232.0226 14.11346840521183
Epoch (UTC): 22 July 2014 11:52:04
Eccentricity: 0.0017117
inclination: 71.0029°
perigee height: 842 km
apogee height: 867 km
right ascension of ascending node: 178.8740°
argument of perigee: 266.6031°
revolutions per day: 14.11346840
mean anomaly at epoch: 232.0226°
orbit number at epoch: 52118

The dashed part of the orbit path shows where the satellite is in the earth's shadow,  

DLR